sat.trackr.live / text

‹ back to catalog

STARLINK-30928

NORAD 58452 · 2023-183R

PAYLOAD ACTIVE UNKNOWN

§ Identity

Operator
Country
US
Launch date
2023-11-28
Launch site
AFETR
Launch vehicle
Mass (kg)
RCS (m²)

Purposes: comms

External: N2YO · Heavens-Above · Gunter

§ Orbital elements

Epoch: 2026-09-19T16:19:39.351648Z

Period
94.27 min
Inclination
43.0045°
Eccentricity
0.0001448
Mean motion
15.27584612 rev/d
Perigee alt
482.0 km
Apogee alt
484.0 km
Semi-major
6,861.2 km
B*
8.8001e-5
RAAN
25.9761°
Arg perigee
265.1549°
Mean anomaly
94.9138°
Rev number
15,639

§ Raw data

STARLINK-309281 58452U 23183R   26262.68031657  .00002160  00000+0  88001-4 0  99942 58452  43.0045  25.9761 0001448 265.1549  94.9138 15.27584612156390

JSON: /api/v1/satellites/58452 · /tle

For live sub-satellite position, see the globe view (requires WebGL).

§ Visibility from observer

Set your observer location to see the next 7 days of passes ≥ 10°. The values pass through the URL so the page stays shareable.

No JS? Fill the form by hand. The geolocation button needs JavaScript.